Tracking 21472 objects as of 22-Sep-2020
HD Live streaming from Space Station
objects crossing your sky now

STARLINK-1751

Track STARLINK-1751 now!
10-day predictions
STARLINK-1751 is classified as:


NORAD ID: 46378
Int'l Code: 2020-062BF
Perigee: 384.2 km
Apogee: 385.9 km
Inclination: 53.0 °
Period: 92.1 minutes
Semi major axis: 6756 km
RCS: Unknown
Launch date: September 3, 2020
Source: United States (US)
Launch site: AIR FORCE EASTERN TEST RANGE (AFETR)
aabbcc
Your satellite tracking list
Your tracking list is empty




NASA's NSSDC Master Catalog

Two Line Element Set (TLE):
1 46378U 20062BF  20266.16667824 -.00784986  00000-0 -92011-2 0  9993
2 46378  52.9990 337.1982 0001317  61.6975 158.8690 15.63375049  3770
Source of the keplerian elements: AFSPC